Tracking 30970 objects as of 3-Jul-2025
HD Live streaming from Space Station
objects crossing your sky now

TITAN 3C TRANSTAGE DEB

Track TITAN 3C TRANSTAGE DEB now!
10-day predictions


NORAD ID: 26049
Int'l Code: 1965-108AH
Perigee: 453.6 km
Apogee: 13,131.9 km
Inclination: 27.2 °
Period: 250.5 minutes
Semi major axis: 13163 km
RCS: 0.0672 m2 (small)
Launch date: December 21, 1965
Source: United States (US)
Launch site: AIR FORCE EASTERN TEST RANGE (AFETR)

Note: This is SATELLITE DEBRIS
Your satellite tracking list
Your tracking list is empty




NASA's NSSDC Master Catalog

Two Line Element Set (TLE):
1 26049U 65108AH  25179.84305849  .00009333  00000-0  82563-2 0  9990
2 26049  27.2201 262.5908 4815601 231.0731  75.2541  5.74822707524143
Source of the keplerian elements: AFSPC